Regional Weather Roundup
Issued by NWS

Home | Current Version | Previous Version | Graphics & Text | Print | Product List | Glossary On
Versions: 1 2 3 4 5 6 7 8 9 10 11 12 13 14 15 16 17 18 19 20 21 22 23 24 25 26 27 28 29 30 31 32 33 34 35 36 37 38 39 40 41 42 43 44 45 46 47 48 49 50
000
ASUS43 KMKX 261021
RWRWI

WISCONSIN REGIONAL WEATHER ROUNDUP
NATIONAL WEATHER SERVICE MILWAUKEE/SULLIVAN WI
500 AM CDT MON SEP 26 2016

NOTE: "FAIR" INDICATES FEW OR NO CLOUDS BELOW 12,000 FEET WITH NO
SIGNIFICANT WEATHER AND/OR OBSTRUCTIONS TO VISIBILITY.

WIZ001-002-006>008-014>016-023>028-261100-
NORTHWEST WISCONSIN

CITY           SKY/WX    TMP DP  RH WIND       PRES   REMARKS
SUPERIOR ARPT  RAIN      50  48  93 W14G21    29.73S
ASHLAND        LGT RAIN  50  48  93 SW16G25   29.69F
HAYWARD        LGT RAIN  49  46  90 W8G17     29.78S
SIREN          MOCLDY    50  45  82 W9        29.83F
CUMBERLAND     CLOUDY    48  43  81 W15       29.84S
RICE LAKE      CLOUDY    51  44  76 W10G21    29.86S
CHETEK         NOT AVBL
LADYSMITH      CLOUDY    52  46  79 W17G23    29.82S
EAU CLAIRE     CLEAR     52  44  74 W15G22    29.87S
MENOMONIE      CLEAR     53  44  72 W10       29.89S
NEW RICHMOND   PTCLDY    50  43  75 W14       29.88F
OSCEOLA        CLOUDY    52  44  75 W14       29.91S
$$

WIZ003>005-009-010-017-018-261100-
NORTH CENTRAL WISCONSIN

CITY           SKY/WX    TMP DP  RH WIND       PRES   REMARKS
MANITOWISH WTR NOT AVBL
ARBOR VITAE    DRIZZLE   49  47  93 W12       29.73F
WOODRUFF       DRIZZLE   49  47  93 W12       29.73F
RHINELANDER    CLOUDY    49  46  90 W13G23    29.76F
EAGLE RIVER    CLOUDY    48  46  93 SW12      29.72F
LAND O LAKES   CLOUDY    50  45  83 SW10G17   29.72F
PHILLIPS       RAIN      47  46  97 W8        29.77S
TOMAHAWK       CLOUDY    49  43  78 W7        29.78F
MEDFORD        CLOUDY    50  46  87 W15G26    29.81S
MERRILL        CLOUDY    51  44  78 W13G18    29.80F
$$

WIZ029-030-035-036-043>047-261100-
CENTRAL WISCONSIN

CITY           SKY/WX    TMP DP  RH WIND       PRES   REMARKS
WAUSAU         MOCLDY    50  43  77 W13       29.80F
MOSINEE        MOCLDY    48  45  87 W14       29.84S
MARSHFIELD     CLOUDY    52  43  71 W14G23    29.84F
STEVENS POINT  MOCLDY    49  43  78 SW12      29.85F
WAUPACA        PTCLDY    55  45  71 W10G20    29.85F
WAUTOMA        PTCLDY    53  46  77 W10       29.88F
WISC RAPIDS    MOCLDY    52  46  80 W8        29.88F
CAMP DOUGLAS   CLEAR     52  46  82 W13G20    29.91S
$$

WIZ011>013-019>022-031-037>040-048>050-261100-
NORTHEAST WISCONSIN

CITY           SKY/WX    TMP DP  RH WIND       PRES   REMARKS
ANTIGO         CLOUDY    48  43  84 W12G17    29.79F
SHAWANO        CLOUDY    54  45  70 SW8       29.82F
OCONTO         NOT AVBL
STURGEON BAY   MOCLDY    55  45  68 W18G28    29.80R
GREEN BAY      CLOUDY    54  46  74 W12G25    29.83F
MANITOWOC      CLOUDY    57  44  62 MISG      29.86R
APPLETON       CLOUDY    52  41  66 W16       29.84S
CLINTONVILLE   NOT AVBL
OSHKOSH        CLOUDY    55  45  68 W8        29.87S
$$

WIZ032>034-041-042-053>061-261100-
SOUTHWEST WISCONSIN

CITY           SKY/WX    TMP DP  RH WIND       PRES   REMARKS
LA CROSSE      CLEAR     55  45  68 W12       29.94S
SPARTA         CLEAR     51  46  84 W5        29.93S
VIROQUA        CLEAR     49  44  84 W6        29.95S
BOSCOBEL       CLEAR     54  46  74 SW6       29.98S
PRAIRIE DU CHI CLEAR     53  42  67 W9        29.99S
PLATTEVILLE    CLEAR     52  48  87 W9        30.00S
$$

WIZ056-057-062-063-064-067-068-261100-
SOUTH CENTRAL WISCONSIN

CITY           SKY/WX    TMP DP  RH WIND       PRES   REMARKS
REEDSBURG      NOT AVBL
BARABOO/DELLS  CLEAR     52  46  81 W9        29.93S
LONE ROCK      CLEAR     53  47  79 W9        29.97S
MINERAL POINT  CLEAR     52  48  87 W7        29.98R
MADISON        PTCLDY    56  48  74 VRB6      29.94S
MIDDLETON      PTCLDY    54  49  81 W10       29.96R
WATERTOWN      CLOUDY    55  50  85 W6        29.94R
MONROE         CLOUDY    54  46  76 SW13      29.98S
JANESVILLE     CLOUDY    57  50  77 W8        29.97R
$$

WIZ051-052-058>065-066-070>072-261100-
SOUTHEAST WISCONSIN

CITY           SKY/WX    TMP DP  RH WIND       PRES   REMARKS
MILWAUKEE      CLOUDY    60  48  64 W10       29.94R
WAUKESHA       CLOUDY    54  46  76 SW8       29.95R
MILWAUKEE/TIMM CLOUDY    55  45  67 W8        29.94R
RACINE         CLOUDY    59  48  67 W9        29.95R
BURLINGTON     CLOUDY    55  48  76 W7        29.96R
KENOSHA        CLOUDY    58  50  75 W12       29.95R
FOND DU LAC    CLOUDY    55  47  74 SW8       29.90R
SHEBOYGAN      CLOUDY    57  45  64 W12       29.88R
WEST BEND      CLOUDY    55  46  71 W7        29.91S
JUNEAU         CLOUDY    54  49  83 SW9       29.93S
$$

LSZ147-162-261100-
LAKE SUPERIOR

STATION/POSITION TIME  TEMP    WIND        PRES    WAVE
                       AIR SEA DIR/SP/G            HT/PER
                 (UTC) (F)     (DEG/KT/KT) (MB)    (FT/S)
W MID LAKE BUOY  0950   56 59  240/ 25/ 29 1001.2F   7/ 7
DEVILS ISLAND    1000   52     230/ 27/ 34 1003.0F
SAXON HARBOR     0940   52     210/ 10/ 18 1005.4F
$$

LMZ867-665-643>646-261100-
LAKE MICHIGAN

STATION/POSITION TIME  TEMP    WIND        PRES    WAVE
                       AIR SEA DIR/SP/G            HT/PER
                 (UTC) (F)     (DEG/KT/KT) (MB)    (FT/S)
CHAMBERS ISLAND  0900   59     220/ 10/ 17 1007.5F
N MID LAKE BUOY  0950   62 67  240/ 21/ 27 1005.9F   4/ 4
NORTHPORT PIER   0900   60     270/  4/ 13 1007.5F
KEWAUNEE LAKESHO 0900   58     260/ 11/ 18 1009.0F
SHEBOYGAN LAKESH 1000   59     260/ 10/ 14 1011.3R
PORT WASHINGTON  0940   60     260/  7/ 11 1013.5R
ATWATER BUOY     1000   59 53  250/ 10/ 14 1013.5R
MILWAUKEE LAKESH 0910   60     280/ 10/ 13   N/A
S MID LAKE BUOY  0950   63 71  290/ 21/ 27 1012.4R   4/ 5
KENOSHA   LAKESH 1000   60     270/  9/ 13 1013.9R
$$

TC  - TEMPERATURE IN CELSIUS
VSB - VISIBILITY IN STATUTE MILES
WCI - WIND CHILL INDEX
HX  - HEAT INDEX




USA.gov is the U.S. government's official web portal to all federal, state and local government web resources and services.